| time (UTC) | temp F | wind direction | speed knots | gust knots | rain 1hr in | rain 24hr in | rain mn in | humidity % | barometer mb |
| 20260906140251 | 71 | 75 | 2.6 | 4.3 | 0.00 | 0.00 | 0.00 | 91 | 1021.1 |
| 20260906135749 | 71 | 134 | 4.3 | 5.2 | 0.00 | 0.00 | 0.00 | 91 | 1021.1 |
| 20260906135244 | 71 | 136 | 2.6 | 4.3 | 0.00 | 0.00 | 0.00 | 91 | 1021.2 |
| 20260906134740 | 70 | 165 | 3.5 | 4.3 | 0.00 | 0.00 | 0.00 | 92 | 1021.2 |
| 20260906134235 | 69 | 89 | 3.5 | 4.3 | 0.00 | 0.00 | 0.00 | 92 | 1021.1 |
| 20260906133730 | 70 | 92 | 3.5 | 4.3 | 0.00 | 0.00 | 0.00 | 92 | 1021.2 |
| 20260906133226 | 69 | 68 | 1.7 | 2.6 | 0.00 | 0.00 | 0.00 | 92 | 1021.4 |
| 20260906132721 | 69 | 96 | 0.9 | 1.7 | 0.00 | 0.00 | 0.00 | 91 | 1021.2 |
| 20260906132216 | 69 | 100 | 1.7 | 2.6 | 0.00 | 0.00 | 0.00 | 92 | 1021.3 |
| 20260906131712 | 68 | 83 | 0.9 | 2.6 | 0.00 | 0.00 | 0.00 | 93 | 1021.4 |
| 20260906131206 | 68 | 77 | 0.9 | 2.6 | 0.00 | 0.00 | 0.00 | 93 | 1021.2 |
| 20260906130701 | 68 | 12 | 1.7 | 1.7 | 0.00 | 0.00 | 0.00 | 91 | 1020.8 |
| 20260906130151 | 68 | 51 | 0.9 | 1.7 | 0.00 | 0.00 | 0.00 | 91 | 1021.3 |
| 20260906125649 | 68 | 27 | 0.9 | 0.9 | 0.00 | 0.00 | 0.00 | 92 | 1021.2 |
| 20260906125148 | 68 | 66 | 0.9 | 1.7 | 0.00 | 0.00 | 0.00 | 92 | 1021.1 |
| 20260906124643 | 67 | 359 | 0.0 | 0.9 | 0.00 | 0.00 | 0.00 | 94 | 1020.9 |
| 20260906124139 | 66 | 355 | 0.0 | 0.0 | 0.00 | 0.00 | 0.00 | 95 | 1021.1 |
| 20260906123637 | 66 | 355 | 0.0 | 0.9 | 0.00 | 0.00 | 0.00 | 96 | 1020.8 |
| 20260906123133 | 66 | 15 | 0.9 | 0.9 | 0.00 | 0.00 | 0.00 | 96 | 1020.8 |
| 20260906122632 | 65 | 3 | 0.0 | 0.9 | 0.00 | 0.00 | 0.00 | 96 | 1020.8 |
| 20260906122128 | 64 | 61 | 0.9 | 1.7 | 0.00 | 0.00 | 0.00 | 97 | 1020.5 |
| 20260906121624 | 64 | 8 | 0.9 | 1.7 | 0.00 | 0.00 | 0.00 | 98 | 1020.7 |
| 20260906121120 | 63 | 43 | 0.9 | 1.7 | 0.00 | 0.00 | 0.00 | 99 | 1020.7 |
| 20260906120615 | 63 | 57 | 1.7 | 1.7 | 0.00 | 0.00 | 0.00 | 98 | 1020.5 |
| 20260906120113 | 63 | 10 | 0.0 | 0.9 | 0.00 | 0.00 | 0.00 | 99 | 1020.5 |
| 20260906115612 | 62 | 3 | 0.9 | 0.9 | 0.00 | 0.00 | 0.00 | 99 | 1020.5 |
| 20260906115108 | 62 | 352 | 0.0 | 0.9 | 0.00 | 0.00 | 0.00 | 99 | 1020.4 |
| 20260906114602 | 62 | 354 | 0.0 | 0.9 | 0.00 | 0.00 | 0.00 | 99 | 1020.4 |
| 20260906114057 | 62 | 355 | 0.9 | 1.7 | 0.00 | 0.00 | 0.00 | 99 | 1020.2 |
| 20260906113556 | 61 | 30 | 0.9 | 2.6 | 0.00 | 0.00 | 0.00 | 99 | 1020.0 |
| 20260906113051 | 61 | 19 | 0.9 | 1.7 | 0.00 | 0.00 | 0.00 | 99 | 1019.9 |
| 20260906112546 | 61 | 11 | 0.0 | 0.9 | 0.00 | 0.00 | 0.00 | 99 | 1020.0 |
| 20260906112043 | 61 | 8 | 0.9 | 1.7 | 0.00 | 0.00 | 0.00 | 99 | 1019.9 |
| 20260906111542 | 61 | 32 | 0.9 | 1.7 | 0.00 | 0.00 | 0.00 | 99 | 1020.1 |
| 20260906111037 | 61 | 15 | 0.9 | 1.7 | 0.00 | 0.00 | 0.00 | 99 | 1019.7 |
| 20260906110537 | 61 | 59 | 1.7 | 2.6 | 0.00 | 0.00 | 0.00 | 99 | 1019.9 |
| 20260906110036 | 61 | 5 | 0.9 | 0.9 | 0.00 | 0.00 | 0.00 | 99 | 1019.8 |
| 20260906105532 | 61 | 28 | 0.9 | 0.9 | 0.00 | 0.00 | 0.00 | 99 | 1019.8 |
| 20260906105028 | 61 | 3 | 0.9 | 0.9 | 0.00 | 0.00 | 0.00 | 99 | 1019.7 |
| 20260906104526 | 61 | 9 | 0.9 | 1.7 | 0.00 | 0.00 | 0.00 | 99 | 1019.7 |
| 20260906104021 | 62 | 9 | 0.9 | 2.6 | 0.00 | 0.00 | 0.00 | 99 | 1019.7 |
| 20260906103519 | 62 | 32 | 1.7 | 2.6 | 0.00 | 0.00 | 0.00 | 99 | 1019.8 |
| 20260906103015 | 62 | 16 | 0.9 | 1.7 | 0.00 | 0.00 | 0.00 | 99 | 1019.6 |
| 20260906102514 | 62 | 76 | 0.9 | 1.7 | 0.00 | 0.00 | 0.00 | 99 | 1019.3 |
| 20260906102009 | 62 | 38 | 1.7 | 2.6 | 0.00 | 0.00 | 0.00 | 99 | 1019.4 |
| 20260906101503 | 62 | 70 | 2.6 | 4.3 | 0.00 | 0.00 | 0.00 | 99 | 1019.5 |
| 20260906100958 | 62 | 29 | 1.7 | 1.7 | 0.00 | 0.00 | 0.00 | 99 | 1019.6 |
| 20260906100454 | 62 | 15 | 0.9 | 1.7 | 0.00 | 0.00 | 0.00 | 99 | 1019.6 |
| 20260906095948 | 62 | 358 | 0.0 | 1.7 | 0.00 | 0.00 | 0.00 | 99 | 1019.7 |
| 20260906095443 | 62 | 351 | 1.7 | 2.6 | 0.00 | 0.00 | 0.00 | 99 | 1019.9 |
| 20260906094938 | 62 | 13 | 1.7 | 1.7 | 0.00 | 0.00 | 0.00 | 99 | 1019.8 |
| 20260906094432 | 62 | 35 | 1.7 | 1.7 | 0.00 | 0.00 | 0.00 | 99 | 1019.7 |
| 20260906093928 | 62 | 15 | 2.6 | 5.2 | 0.00 | 0.00 | 0.00 | 99 | 1019.8 |
| 20260906093424 | 62 | 15 | 1.7 | 2.6 | 0.00 | 0.00 | 0.00 | 99 | 1019.7 |
| 20260906092919 | 62 | 349 | 0.9 | 1.7 | 0.00 | 0.00 | 0.00 | 99 | 1019.7 |
| 20260906092418 | 61 | 16 | 1.7 | 2.6 | 0.00 | 0.00 | 0.00 | 99 | 1019.8 |
| 20260906091914 | 62 | 329 | 1.7 | 2.6 | 0.00 | 0.00 | 0.00 | 99 | 1019.7 |
| 20260906091410 | 62 | 329 | 2.6 | 4.3 | 0.00 | 0.00 | 0.00 | 99 | 1019.8 |
| 20260906090906 | 62 | 346 | 0.9 | 1.7 | 0.00 | 0.00 | 0.00 | 99 | 1019.9 |
| 20260906090406 | 62 | 352 | 0.9 | 1.7 | 0.00 | 0.00 | 0.00 | 99 | 1019.6 |
| 20260906085901 | 62 | 11 | 0.0 | 0.9 | 0.00 | 0.00 | 0.00 | 99 | 1019.3 |
| 20260906085400 | 62 | 22 | 1.7 | 1.7 | 0.00 | 0.00 | 0.00 | 99 | 1019.4 |
| 20260906084859 | 62 | 47 | 1.7 | 2.6 | 0.00 | 0.00 | 0.00 | 99 | 1019.4 |
| 20260906084354 | 62 | 32 | 0.9 | 1.7 | 0.00 | 0.00 | 0.00 | 99 | 1019.4 |
| 20260906083848 | 62 | 21 | 1.7 | 2.6 | 0.00 | 0.00 | 0.00 | 99 | 1019.6 |
| 20260906083344 | 62 | 353 | 1.7 | 2.6 | 0.00 | 0.00 | 0.00 | 99 | 1019.6 |
| 20260906082843 | 62 | 354 | 0.9 | 1.7 | 0.00 | 0.00 | 0.00 | 99 | 1019.5 |
| 20260906082338 | 62 | 346 | 2.6 | 2.6 | 0.00 | 0.00 | 0.00 | 99 | 1019.6 |
| 20260906081835 | 62 | 349 | 2.6 | 2.6 | 0.00 | 0.00 | 0.00 | 99 | 1019.6 |
| 20260906081330 | 62 | 343 | 1.7 | 1.7 | 0.00 | 0.00 | 0.00 | 99 | 1019.5 |
| 20260906080826 | 62 | 335 | 0.9 | 1.7 | 0.00 | 0.00 | 0.00 | 99 | 1019.4 |
| 20260906080322 | 63 | 357 | 2.6 | 2.6 | 0.00 | 0.00 | 0.00 | 99 | 1019.5 |
| 20260906075822 | 63 | 355 | 0.9 | 2.6 | 0.00 | 0.00 | 0.00 | 99 | 1019.3 |
| 20260906075322 | 63 | 2 | 0.9 | 0.9 | 0.00 | 0.00 | 0.00 | 99 | 1019.5 |
| 20260906074817 | 63 | 3 | 0.9 | 1.7 | 0.00 | 0.00 | 0.00 | 99 | 1019.5 |
| 20260906074317 | 63 | 5 | 0.9 | 0.9 | 0.00 | 0.00 | 0.00 | 99 | 1019.4 |
| 20260906073816 | 63 | 355 | 0.0 | 0.0 | 0.00 | 0.00 | 0.00 | 99 | 1019.2 |
| 20260906073311 | 63 | 347 | 0.0 | 0.9 | 0.00 | 0.00 | 0.00 | 99 | 1019.3 |
| 20260906072807 | 63 | 6 | 0.9 | 0.9 | 0.00 | 0.00 | 0.00 | 99 | 1019.3 |
| 20260906072305 | 63 | 2 | 0.0 | 1.7 | 0.00 | 0.00 | 0.00 | 99 | 1019.4 |
| 20260906071758 | 63 | 2 | 0.0 | 0.9 | 0.00 | 0.00 | 0.00 | 99 | 1019.4 |
| 20260906071253 | 63 | 16 | 0.9 | 0.9 | 0.00 | 0.00 | 0.00 | 99 | 1019.1 |
| 20260906070749 | 63 | 6 | 0.9 | 0.9 | 0.00 | 0.00 | 0.00 | 99 | 1019.5 |
| 20260906070244 | 63 | 3 | 1.7 | 1.7 | 0.00 | 0.00 | 0.00 | 99 | 1019.6 |
| 20260906065744 | 63 | 357 | 0.9 | 1.7 | 0.00 | 0.00 | 0.00 | 99 | 1019.5 |
| 20260906065239 | 63 | 16 | 1.7 | 1.7 | 0.00 | 0.00 | 0.00 | 99 | 1019.5 |
| 20260906064735 | 63 | 11 | 1.7 | 1.7 | 0.00 | 0.00 | 0.00 | 99 | 1019.5 |
| 20260906064230 | 63 | 0 | 0.0 | 1.7 | 0.00 | 0.00 | 0.00 | 99 | 1019.5 |
| 20260906063725 | 63 | 6 | 0.9 | 0.9 | 0.00 | 0.00 | 0.00 | 99 | 1019.4 |
| 20260906063221 | 63 | 16 | 0.9 | 0.9 | 0.00 | 0.00 | 0.00 | 99 | 1019.7 |
| 20260906062716 | 63 | 22 | 0.9 | 1.7 | 0.00 | 0.00 | 0.00 | 99 | 1019.5 |
| 20260906062215 | 63 | 8 | 0.9 | 1.7 | 0.00 | 0.00 | 0.00 | 99 | 1019.4 |
| 20260906061711 | 63 | 1 | 0.9 | 1.7 | 0.00 | 0.00 | 0.00 | 99 | 1019.5 |
| 20260906061207 | 63 | 16 | 1.7 | 1.7 | 0.00 | 0.00 | 0.00 | 99 | 1019.5 |
| 20260906060703 | 63 | 9 | 0.9 | 1.7 | 0.00 | 0.00 | 0.00 | 99 | 1019.5 |
| 20260906060200 | 63 | 342 | 0.9 | 0.9 | 0.00 | 0.00 | 0.00 | 99 | 1019.6 |
| 20260906055655 | 64 | 345 | 1.7 | 2.6 | 0.00 | 0.00 | 0.00 | 99 | 1019.5 |
| 20260906055150 | 63 | 340 | 1.7 | 1.7 | 0.00 | 0.00 | 0.00 | 99 | 1019.6 |
| 20260906054646 | 63 | 332 | 0.9 | 2.6 | 0.00 | 0.00 | 0.00 | 99 | 1019.4 |
| 20260906054140 | 63 | 338 | 1.7 | 2.6 | 0.00 | 0.00 | 0.00 | 99 | 1019.5 |
| 20260906053637 | 64 | 331 | 0.9 | 0.9 | 0.00 | 0.00 | 0.00 | 99 | 1019.5 |
| 20260906053132 | 64 | 350 | 0.9 | 0.9 | 0.00 | 0.00 | 0.00 | 99 | 1019.4 |
| 20260906052627 | 64 | 338 | 0.9 | 0.9 | 0.00 | 0.00 | 0.00 | 99 | 1019.3 |
| 20260906052124 | 64 | 341 | 0.0 | 0.9 | 0.00 | 0.00 | 0.00 | 99 | 1019.5 |
| 20260906051620 | 64 | 335 | 0.9 | 0.9 | 0.00 | 0.00 | 0.00 | 99 | 1019.6 |
| 20260906051114 | 65 | 356 | 0.9 | 1.7 | 0.00 | 0.00 | 0.00 | 99 | 1019.4 |
| 20260906050610 | 65 | 343 | 1.7 | 2.6 | 0.00 | 0.00 | 0.00 | 99 | 1019.4 |
| 20260906050105 | 65 | 333 | 0.9 | 1.7 | 0.00 | 0.00 | 0.00 | 99 | 1019.7 |
| 20260906045603 | 65 | 351 | 0.9 | 2.6 | 0.00 | 0.00 | 0.00 | 97 | 1019.6 |
| 20260906045059 | 66 | 6 | 1.7 | 1.7 | 0.00 | 0.00 | 0.00 | 97 | 1019.2 |
| 20260906044554 | 66 | 8 | 0.9 | 1.7 | 0.00 | 0.00 | 0.00 | 96 | 1019.2 |
| 20260906044044 | 66 | 86 | 1.7 | 2.6 | 0.00 | 0.00 | 0.00 | 95 | 1019.2 |
| 20260906043540 | 66 | 74 | 2.6 | 2.6 | 0.00 | 0.00 | 0.00 | 95 | 1019.1 |
| 20260906043036 | 66 | 78 | 1.7 | 2.6 | 0.00 | 0.00 | 0.00 | 96 | 1019.0 |
| 20260906042534 | 66 | 54 | 0.9 | 1.7 | 0.00 | 0.00 | 0.00 | 97 | 1019.1 |
| 20260906042029 | 66 | 84 | 2.6 | 2.6 | 0.00 | 0.00 | 0.00 | 97 | 1019.2 |
| 20260906041525 | 66 | 95 | 0.9 | 1.7 | 0.00 | 0.00 | 0.00 | 97 | 1018.9 |
| 20260906041025 | 66 | 86 | 0.9 | 1.7 | 0.00 | 0.00 | 0.00 | 97 | 1019.0 |
| 20260906040520 | 66 | 31 | 0.9 | 1.7 | 0.00 | 0.00 | 0.00 | 98 | 1019.0 |
| 20260906040016 | 66 | 77 | 0.9 | 2.6 | 0.00 | 0.00 | 0.00 | 97 | 1018.8 |
| 20260906035511 | 67 | 104 | 2.6 | 4.3 | 0.00 | 0.00 | 0.00 | 98 | 1018.9 |
| 20260906035007 | 67 | 75 | 2.6 | 4.3 | 0.00 | 0.00 | 0.00 | 98 | 1018.7 |
| 20260906034507 | 67 | 19 | 2.6 | 2.6 | 0.00 | 0.00 | 0.00 | 98 | 1018.7 |
| 20260906034001 | 67 | 84 | 2.6 | 4.3 | 0.00 | 0.00 | 0.00 | 99 | 1018.7 |
| 20260906033456 | 67 | 88 | 2.6 | 2.6 | 0.00 | 0.00 | 0.00 | 99 | 1018.5 |
| 20260906032952 | 67 | 67 | 1.7 | 2.6 | 0.00 | 0.00 | 0.00 | 99 | 1018.6 |
| 20260906032448 | 67 | 105 | 2.6 | 4.3 | 0.00 | 0.00 | 0.00 | 99 | 1018.6 |
| 20260906031943 | 67 | 63 | 1.7 | 2.6 | 0.00 | 0.00 | 0.00 | 98 | 1018.8 |
| 20260906031438 | 67 | 72 | 1.7 | 2.6 | 0.00 | 0.00 | 0.00 | 98 | 1018.6 |
| 20260906030933 | 67 | 65 | 1.7 | 2.6 | 0.00 | 0.00 | 0.00 | 98 | 1018.6 |
| 20260906030428 | 68 | 58 | 0.9 | 5.2 | 0.00 | 0.00 | 0.00 | 98 | 1018.7 |
| 20260906025922 | 68 | 99 | 1.7 | 2.6 | 0.00 | 0.00 | 0.00 | 98 | 1018.8 |
| 20260906025417 | 68 | 83 | 1.7 | 2.6 | 0.00 | 0.00 | 0.00 | 97 | 1018.8 |
| 20260906024916 | 68 | 66 | 0.9 | 2.6 | 0.00 | 0.00 | 0.00 | 97 | 1018.6 |
| 20260906024415 | 68 | 100 | 2.6 | 4.3 | 0.00 | 0.00 | 0.00 | 97 | 1018.4 |
| 20260906023910 | 68 | 92 | 2.6 | 4.3 | 0.00 | 0.00 | 0.00 | 97 | 1018.0 |
| 20260906023407 | 68 | 81 | 2.6 | 4.3 | 0.00 | 0.00 | 0.00 | 97 | 1018.2 |
| 20260906022906 | 68 | 99 | 4.3 | 5.2 | 0.00 | 0.00 | 0.00 | 97 | 1018.0 |
| 20260906022401 | 68 | 52 | 2.6 | 4.3 | 0.00 | 0.00 | 0.00 | 97 | 1018.1 |
| 20260906021857 | 68 | 61 | 2.6 | 2.6 | 0.00 | 0.00 | 0.00 | 97 | 1018.4 |
| 20260906021356 | 68 | 98 | 2.6 | 2.6 | 0.00 | 0.00 | 0.00 | 97 | 1018.3 |
| 20260906020851 | 68 | 71 | 1.7 | 5.2 | 0.00 | 0.00 | 0.00 | 97 | 1018.1 |
| 20260906020351 | 68 | 98 | 2.6 | 4.3 | 0.00 | 0.00 | 0.00 | 97 | 1017.9 |
| 20260906015846 | 68 | 111 | 2.6 | 2.6 | 0.00 | 0.00 | 0.00 | 97 | 1018.1 |
| 20260906015344 | 69 | 104 | 3.5 | 5.2 | 0.00 | 0.00 | 0.00 | 96 | 1018.0 |
| 20260906014839 | 69 | 101 | 4.3 | 6.1 | 0.00 | 0.00 | 0.00 | 96 | 1017.9 |
| 20260906014333 | 69 | 122 | 3.5 | 7.0 | 0.00 | 0.00 | 0.00 | 96 | 1017.9 |
| 20260906013830 | 69 | 73 | 4.3 | 6.1 | 0.00 | 0.00 | 0.00 | 96 | 1017.9 |
| 20260906013325 | 69 | 84 | 1.7 | 5.2 | 0.00 | 0.00 | 0.00 | 96 | 1018.0 |
| 20260906012821 | 69 | 77 | 5.2 | 7.0 | 0.00 | 0.00 | 0.00 | 96 | 1017.7 |
| 20260906012321 | 69 | 104 | 3.5 | 6.1 | 0.00 | 0.00 | 0.00 | 95 | 1017.8 |
| 20260906011815 | 70 | 96 | 4.3 | 7.0 | 0.00 | 0.00 | 0.00 | 95 | 1017.6 |
| 20260906011315 | 70 | 98 | 5.2 | 7.0 | 0.00 | 0.00 | 0.00 | 95 | 1017.6 |
| 20260906010812 | 70 | 97 | 3.5 | 5.2 | 0.00 | 0.00 | 0.00 | 94 | 1017.9 |
| 20260906010308 | 70 | 96 | 3.5 | 7.0 | 0.00 | 0.00 | 0.00 | 93 | 1017.8 |
| 20260906005802 | 71 | 83 | 3.5 | 6.1 | 0.00 | 0.00 | 0.00 | 93 | 1017.7 |
| 20260906005301 | 71 | 58 | 3.5 | 6.1 | 0.00 | 0.00 | 0.00 | 92 | 1017.8 |
| 20260906004800 | 71 | 125 | 3.5 | 7.8 | 0.00 | 0.00 | 0.00 | 92 | 1017.9 |
| 20260906004256 | 71 | 53 | 4.3 | 6.1 | 0.00 | 0.00 | 0.00 | 92 | 1017.8 |
| 20260906003756 | 71 | 98 | 4.3 | 7.0 | 0.00 | 0.00 | 0.00 | 91 | 1018.0 |
| 20260906003252 | 71 | 73 | 3.5 | 6.1 | 0.00 | 0.00 | 0.00 | 91 | 1018.0 |
| 20260906002747 | 72 | 98 | 6.1 | 7.8 | 0.00 | 0.00 | 0.00 | 90 | 1018.0 |
| 20260906002246 | 72 | 71 | 4.3 | 7.0 | 0.00 | 0.00 | 0.00 | 90 | 1017.9 |
| 20260906001742 | 72 | 113 | 3.5 | 6.1 | 0.00 | 0.00 | 0.00 | 91 | 1018.2 |
| 20260906001237 | 73 | 85 | 2.6 | 7.0 | 0.00 | 0.00 | 0.00 | 90 | 1018.0 |
| 20260906000732 | 73 | 71 | 4.3 | 6.1 | 0.00 | 0.00 | 0.00 | 89 | 1018.0 |
| 20260906000234 | 73 | 89 | 3.5 | 7.0 | 0.00 | 0.00 | 0.00 | 89 | 1017.9 |
| 20260905235733 | 73 | 123 | 6.1 | 9.6 | 0.00 | 0.00 | 0.00 | 88 | 1017.9 |
| 20260905235227 | 74 | 117 | 3.5 | 6.1 | 0.00 | 0.00 | 0.00 | 88 | 1017.7 |
| 20260905234723 | 74 | 108 | 6.1 | 13.0 | 0.00 | 0.00 | 0.00 | 87 | 1017.8 |
| 20260905234218 | 74 | 90 | 4.3 | 8.7 | 0.00 | 0.00 | 0.00 | 87 | 1017.6 |
| 20260905233713 | 74 | 107 | 7.8 | 11.3 | 0.00 | 0.00 | 0.00 | 88 | 1017.6 |
| 20260905233212 | 75 | 102 | 5.2 | 7.0 | 0.00 | 0.00 | 0.00 | 87 | 1017.7 |
| 20260905232707 | 75 | 79 | 4.3 | 7.0 | 0.00 | 0.00 | 0.00 | 86 | 1017.8 |
| 20260905232203 | 75 | 69 | 6.1 | 7.0 | 0.00 | 0.00 | 0.00 | 86 | 1017.6 |
| 20260905231659 | 75 | 78 | 6.1 | 8.7 | 0.00 | 0.00 | 0.00 | 86 | 1017.6 |
| 20260905231154 | 75 | 66 | 7.8 | 8.7 | 0.00 | 0.00 | 0.00 | 86 | 1017.5 |
| 20260905230650 | 75 | 100 | 6.1 | 7.8 | 0.00 | 0.00 | 0.00 | 86 | 1017.7 |
| 20260905230148 | 76 | 131 | 4.3 | 5.2 | 0.00 | 0.00 | 0.00 | 85 | 1017.9 |
| 20260905225647 | 76 | 49 | 2.6 | 5.2 | 0.00 | 0.00 | 0.00 | 84 | 1017.8 |
| 20260905225142 | 77 | 103 | 4.3 | 6.1 | 0.00 | 0.00 | 0.00 | 84 | 1017.5 |
| 20260905224641 | 77 | 55 | 4.3 | 6.1 | 0.00 | 0.00 | 0.00 | 83 | 1017.8 |
| 20260905224136 | 77 | 85 | 5.2 | 7.0 | 0.00 | 0.00 | 0.00 | 83 | 1017.5 |
| 20260905223633 | 77 | 100 | 5.2 | 7.0 | 0.00 | 0.00 | 0.00 | 82 | 1017.6 |
| 20260905223129 | 77 | 96 | 4.3 | 6.1 | 0.00 | 0.00 | 0.00 | 81 | 1017.6 |
| 20260905222624 | 77 | 24 | 4.3 | 6.1 | 0.00 | 0.00 | 0.00 | 82 | 1017.5 |
| 20260905222114 | 77 | 100 | 4.3 | 8.7 | 0.00 | 0.00 | 0.00 | 82 | 1017.6 |
| 20260905221609 | 78 | 85 | 5.2 | 7.8 | 0.00 | 0.00 | 0.00 | 81 | 1017.4 |
| 20260905221106 | 78 | 126 | 2.6 | 7.0 | 0.00 | 0.00 | 0.00 | 80 | 1017.1 |
| 20260905220601 | 78 | 86 | 3.5 | 7.8 | 0.00 | 0.00 | 0.00 | 80 | 1017.3 |
| 20260905220057 | 78 | 95 | 3.5 | 6.1 | 0.00 | 0.00 | 0.00 | 80 | 1017.3 |
| 20260905215556 | 77 | 57 | 3.5 | 7.0 | 0.00 | 0.00 | 0.00 | 82 | 1017.2 |
| 20260905215052 | 77 | 52 | 6.1 | 7.8 | 0.00 | 0.00 | 0.00 | 82 | 1017.1 |
| 20260905214548 | 78 | 92 | 5.2 | 8.7 | 0.00 | 0.00 | 0.00 | 82 | 1017.4 |
| 20260905214043 | 78 | 119 | 4.3 | 7.8 | 0.00 | 0.00 | 0.00 | 83 | 1017.2 |
| 20260905213538 | 77 | 62 | 2.6 | 5.2 | 0.00 | 0.00 | 0.00 | 84 | 1017.4 |
| 20260905213034 | 77 | 78 | 3.5 | 7.0 | 0.00 | 0.00 | 0.00 | 84 | 1017.1 |
| 20260905212534 | 77 | 46 | 5.2 | 8.7 | 0.00 | 0.00 | 0.00 | 84 | 1017.1 |
| 20260905212028 | 77 | 59 | 3.5 | 7.0 | 0.00 | 0.00 | 0.00 | 84 | 1016.9 |
| 20260905211523 | 77 | 46 | 2.6 | 5.2 | 0.00 | 0.00 | 0.00 | 84 | 1017.5 |
| 20260905211019 | 77 | 68 | 4.3 | 5.2 | 0.00 | 0.00 | 0.00 | 83 | 1017.3 |
| 20260905210515 | 77 | 44 | 5.2 | 7.8 | 0.00 | 0.00 | 0.00 | 83 | 1017.4 |
| 20260905210014 | 77 | 31 | 6.1 | 9.6 | 0.00 | 0.00 | 0.00 | 82 | 1017.1 |
| 20260905205508 | 78 | 87 | 7.8 | 9.6 | 0.00 | 0.00 | 0.00 | 84 | 1016.8 |
| 20260905205008 | 79 | 44 | 7.0 | 9.6 | 0.00 | 0.00 | 0.00 | 83 | 1016.9 |
| 20260905204503 | 78 | 58 | 4.3 | 7.8 | 0.00 | 0.00 | 0.00 | 83 | 1017.1 |
| 20260905204003 | 78 | 112 | 5.2 | 8.7 | 0.00 | 0.00 | 0.00 | 82 | 1016.9 |
| 20260905203458 | 78 | 91 | 5.2 | 8.7 | 0.00 | 0.00 | 0.00 | 84 | 1017.2 |
| 20260905202953 | 78 | 42 | 2.6 | 8.7 | 0.00 | 0.00 | 0.00 | 84 | 1017.2 |
| 20260905202448 | 79 | 295 | 4.3 | 7.0 | 0.00 | 0.00 | 0.00 | 82 | 1017.2 |
| 20260905201944 | 79 | 89 | 5.2 | 7.0 | 0.00 | 0.00 | 0.00 | 82 | 1017.2 |
| 20260905201439 | 79 | 14 | 4.3 | 7.0 | 0.00 | 0.00 | 0.00 | 82 | 1017.3 |
| 20260905200938 | 80 | 58 | 7.0 | 8.7 | 0.00 | 0.00 | 0.00 | 83 | 1017.1 |
| 20260905200435 | 80 | 60 | 2.6 | 5.2 | 0.00 | 0.00 | 0.00 | 82 | 1017.1 |
| 20260905195933 | 78 | 76 | 4.3 | 8.7 | 0.00 | 0.00 | 0.00 | 84 | 1017.2 |
| 20260905195428 | 80 | 80 | 7.0 | 9.6 | 0.00 | 0.00 | 0.00 | 80 | 1017.4 |
| 20260905194924 | 81 | 105 | 5.2 | 7.8 | 0.00 | 0.00 | 0.00 | 81 | 1017.2 |
| 20260905194423 | 81 | 55 | 1.7 | 4.3 | 0.00 | 0.00 | 0.00 | 80 | 1017.4 |
| 20260905193923 | 81 | 58 | 5.2 | 7.0 | 0.00 | 0.00 | 0.00 | 78 | 1017.2 |
| 20260905193418 | 81 | 343 | 2.6 | 5.2 | 0.00 | 0.00 | 0.00 | 79 | 1017.5 |
| 20260905192913 | 82 | 335 | 4.3 | 6.1 | 0.00 | 0.00 | 0.00 | 78 | 1017.2 |
| 20260905192409 | 82 | 16 | 1.7 | 4.3 | 0.00 | 0.00 | 0.00 | 78 | 1017.4 |
| 20260905191909 | 81 | 96 | 2.6 | 4.3 | 0.00 | 0.00 | 0.00 | 80 | 1017.2 |
| 20260905191408 | 80 | 93 | 1.7 | 2.6 | 0.00 | 0.00 | 0.00 | 79 | 1017.4 |
| 20260905190903 | 80 | 103 | 2.6 | 4.3 | 0.00 | 0.00 | 0.00 | 79 | 1017.4 |
| 20260905190400 | 80 | 73 | 2.6 | 5.2 | 0.00 | 0.00 | 0.00 | 80 | 1017.5 |
| 20260905185859 | 79 | 26 | 2.6 | 5.2 | 0.00 | 0.00 | 0.00 | 80 | 1017.3 |
| 20260905185355 | 80 | 29 | 3.5 | 5.2 | 0.00 | 0.00 | 0.00 | 79 | 1017.4 |
| 20260905184854 | 79 | 16 | 1.7 | 6.1 | 0.00 | 0.00 | 0.00 | 79 | 1017.3 |
| 20260905184353 | 80 | 44 | 4.3 | 7.0 | 0.00 | 0.00 | 0.00 | 78 | 1017.6 |
| 20260905183851 | 80 | 352 | 2.6 | 7.0 | 0.00 | 0.00 | 0.00 | 79 | 1017.5 |
| 20260905183347 | 78 | 23 | 2.6 | 4.3 | 0.00 | 0.00 | 0.00 | 82 | 1017.6 |
| 20260905182842 | 78 | 28 | 4.3 | 5.2 | 0.00 | 0.00 | 0.00 | 82 | 1017.5 |
| 20260905182341 | 78 | 58 | 4.3 | 7.8 | 0.00 | 0.00 | 0.00 | 85 | 1017.5 |
| 20260905181837 | 79 | 3 | 3.5 | 4.3 | 0.00 | 0.00 | 0.00 | 82 | 1017.8 |
| 20260905181336 | 78 | 48 | 2.6 | 5.2 | 0.00 | 0.00 | 0.00 | 83 | 1017.9 |
| 20260905180835 | 78 | 20 | 2.6 | 5.2 | 0.00 | 0.00 | 0.00 | 83 | 1017.7 |
| 20260905180331 | 79 | 3 | 2.6 | 5.2 | 0.00 | 0.00 | 0.00 | 83 | 1017.8 |
| 20260905175825 | 78 | 355 | 0.9 | 4.3 | 0.00 | 0.00 | 0.00 | 86 | 1017.7 |
| 20260905175320 | 78 | 44 | 0.9 | 5.2 | 0.00 | 0.00 | 0.00 | 85 | 1017.6 |
| 20260905174815 | 77 | 6 | 1.7 | 4.3 | 0.00 | 0.00 | 0.00 | 86 | 1017.7 |
| 20260905174311 | 77 | 20 | 2.6 | 6.1 | 0.00 | 0.00 | 0.00 | 86 | 1017.7 |
| 20260905173807 | 77 | 13 | 4.3 | 6.1 | 0.00 | 0.00 | 0.00 | 87 | 1017.8 |
| 20260905173303 | 77 | 22 | 4.3 | 7.0 | 0.00 | 0.00 | 0.00 | 87 | 1017.8 |
| 20260905172802 | 77 | 15 | 2.6 | 6.1 | 0.00 | 0.00 | 0.00 | 87 | 1017.9 |
| 20260905172301 | 77 | 51 | 2.6 | 5.2 | 0.00 | 0.00 | 0.00 | 87 | 1017.7 |
| 20260905171757 | 77 | 346 | 0.9 | 1.7 | 0.00 | 0.00 | 0.00 | 88 | 1017.9 |
| 20260905171253 | 76 | 339 | 2.6 | 5.2 | 0.00 | 0.00 | 0.00 | 88 | 1017.9 |
| 20260905170749 | 76 | 36 | 2.6 | 4.3 | 0.00 | 0.00 | 0.00 | 88 | 1017.9 |
| 20260905170245 | 76 | 28 | 0.9 | 5.2 | 0.00 | 0.00 | 0.00 | 88 | 1017.7 |
| 20260905165744 | 76 | 31 | 2.6 | 4.3 | 0.00 | 0.00 | 0.00 | 88 | 1017.9 |
| 20260905165240 | 76 | 82 | 3.5 | 4.3 | 0.00 | 0.00 | 0.00 | 88 | 1017.6 |
| 20260905164740 | 75 | 30 | 2.6 | 2.6 | 0.00 | 0.00 | 0.00 | 90 | 1017.8 |
| 20260905164234 | 75 | 56 | 2.6 | 4.3 | 0.00 | 0.00 | 0.00 | 91 | 1017.8 |
| 20260905163730 | 75 | 61 | 2.6 | 6.1 | 0.00 | 0.00 | 0.00 | 91 | 1017.9 |
| 20260905163226 | 75 | 54 | 2.6 | 7.0 | 0.00 | 0.00 | 0.00 | 91 | 1017.9 |
| 20260905162722 | 75 | 12 | 3.5 | 5.2 | 0.00 | 0.00 | 0.00 | 90 | 1017.8 |
| 20260905162222 | 75 | 72 | 3.5 | 4.3 | 0.00 | 0.00 | 0.00 | 90 | 1017.7 |
| 20260905161717 | 75 | 49 | 1.7 | 4.3 | 0.00 | 0.00 | 0.00 | 89 | 1017.7 |
| 20260905161215 | 76 | 5 | 2.6 | 4.3 | 0.00 | 0.00 | 0.00 | 89 | 1017.8 |
| 20260905160713 | 75 | 352 | 0.9 | 1.7 | 0.00 | 0.00 | 0.00 | 90 | 1018.0 |
| 20260905160208 | 75 | 36 | 0.9 | 4.3 | 0.00 | 0.00 | 0.00 | 91 | 1017.7 |
| 20260905155702 | 75 | 63 | 3.5 | 4.3 | 0.00 | 0.00 | 0.00 | 91 | 1017.7 |
| 20260905155202 | 75 | 60 | 2.6 | 4.3 | 0.00 | 0.00 | 0.00 | 92 | 1017.8 |
| 20260905154655 | 74 | 26 | 4.3 | 5.2 | 0.00 | 0.00 | 0.00 | 92 | 1017.7 |
| 20260905154151 | 74 | 74 | 2.6 | 6.1 | 0.00 | 0.00 | 0.00 | 92 | 1017.9 |
| 20260905153647 | 74 | 109 | 4.3 | 6.1 | 0.00 | 0.00 | 0.00 | 91 | 1017.6 |
| 20260905153142 | 74 | 44 | 2.6 | 4.3 | 0.00 | 0.00 | 0.00 | 93 | 1017.7 |
| 20260905152637 | 74 | 49 | 2.6 | 2.6 | 0.00 | 0.00 | 0.00 | 93 | 1017.3 |
| 20260905152132 | 74 | 68 | 1.7 | 5.2 | 0.00 | 0.00 | 0.00 | 92 | 1017.7 |
| 20260905151627 | 74 | 59 | 1.7 | 2.6 | 0.00 | 0.00 | 0.00 | 94 | 1017.5 |
| 20260905151122 | 73 | 94 | 3.5 | 5.2 | 0.00 | 0.00 | 0.00 | 95 | 1017.5 |
| 20260905150617 | 73 | 56 | 2.6 | 2.6 | 0.00 | 0.00 | 0.00 | 95 | 1017.6 |
| 20260905150115 | 73 | 78 | 1.7 | 5.2 | 0.00 | 0.00 | 0.00 | 96 | 1017.5 |
| 20260905145609 | 72 | 50 | 2.6 | 5.2 | 0.00 | 0.00 | 0.00 | 96 | 1017.4 |
| 20260905145108 | 72 | 81 | 1.7 | 5.2 | 0.00 | 0.00 | 0.00 | 97 | 1017.1 |
| 20260905144603 | 72 | 87 | 3.5 | 5.2 | 0.00 | 0.00 | 0.00 | 97 | 1017.4 |
| 20260905144102 | 72 | 78 | 2.6 | 6.1 | 0.00 | 0.00 | 0.00 | 97 | 1016.7 |
| 20260905143602 | 72 | 66 | 3.5 | 7.0 | 0.00 | 0.00 | 0.00 | 97 | 1016.9 |
| 20260905143057 | 72 | 79 | 3.5 | 7.0 | 0.00 | 0.00 | 0.00 | 97 | 1017.1 |
| 20260905142556 | 72 | 24 | 2.6 | 6.1 | 0.00 | 0.00 | 0.00 | 97 | 1017.1 |
| 20260905142056 | 72 | 41 | 1.7 | 5.2 | 0.00 | 0.00 | 0.00 | 97 | 1016.9 |
| 20260905141550 | 72 | 33 | 2.6 | 6.1 | 0.00 | 0.00 | 0.00 | 98 | 1016.9 |
| 20260905141047 | 72 | 93 | 2.6 | 5.2 | 0.00 | 0.00 | 0.00 | 98 | 1016.7 |
| 20260905140542 | 72 | 72 | 5.2 | 7.0 | 0.00 | 0.00 | 0.00 | 98 | 1017.1 |